Location: Condé
(48.8970°N, 2.8390°E)
Time: 03:45:27
(UTC+00:00)

Daily predictions for brighter satellites

Satellite Brightness Start Highest point End
(mag) Time Altitude Azimuth Time Altitude Azimuth Time Altitude Azimuth
ATLAS 3B R/B 4.0 02:55:58 35° NE 02:55:58 35° NE 02:59:52 10° NE
ARIANE 5 R/B 4.4 03:27:59 10° NNE 03:30:23 25° NE 03:30:23 25° NE
CZ-4C R/B 3.9 03:53:11 25° N 03:53:11 25° N 03:57:24 10° NE
CENTAUR R/B 4.3 03:54:26 25° NNW 03:57:53 35° NNE 04:05:43 10° E
NOSS 3-1 (C) 4.0 03:59:39 46° NNE 03:59:39 46° NNE 04:04:17 10° NE
USA 229 DEB 3.9 04:06:00 53° SSE 04:06:59 59° ESE 04:13:37 10° NE
USA 229 3.9 04:06:02 52° SSE 04:07:06 58° ESE 04:13:43 10° NE
Meteor 2-21 Rocket 4.3 04:15:30 87° ESE 04:15:32 87° E 04:21:38 10° N
Cosmos 1850 Rocket 4.4 04:18:01 59° SE 04:18:01 59° SE 04:22:18 10° SSE
Cosmos 1452 Rocket 3.9 04:22:00 54° SSE 04:22:50 62° ESE 04:28:01 10° NNE
Cosmos 1741 Rocket 4.0 04:26:16 79° ESE 04:26:16 79° ESE 04:31:17 10° SSE
Cosmos 2219 Rocket 2.3 04:28:37 59° S 04:28:37 59° S 04:33:14 10° SSE
USA 234 3.5 04:22:35 10° ESE 04:29:04 65° NNE 04:31:19 42° NW
DMSP B5D2-2 4.1 04:24:38 10° SSE 04:29:54 77° ENE 04:35:12 10° NNW
COSMO-SKYMED 1 3.4 04:26:15 10° SE 04:30:26 48° ENE 04:33:11 20° N
NOSS 3-1 (A) 3.1 04:33:46 68° NW 04:33:46 68° NW 04:40:02 10° NE
Envisat 3.9 04:28:52 10° N 04:31:59 37° N 04:31:59 37° N
CZ-2C R/B 3.6 04:29:02 10° N 04:33:26 48° NNW 04:33:26 48° NNW
Meteor 1-16 Rocket 4.3 04:36:18 60° NW 04:36:18 60° NW 04:41:33 10° N
Cosmos 2237 Rocket 3.5 04:31:45 13° NNW 04:36:25 38° NE 04:41:41 10° ESE
NOSS 0 Rocket 4.4 04:32:06 20° NNW 04:36:28 60° NE 04:42:36 10° SE
Nadezhda 4 Rocket 3.9 04:30:49 12° S 04:36:48 89° WNW 04:43:10 10° N
Meteor 2-16 Rocket 4.3 04:35:35 47° SSW 04:37:26 77° W 04:43:38 10° N
Okean 2 Rocket 4.4 04:43:48 29° N 04:43:48 29° N 04:46:07 10° N
Cosmos 2333 Rocket 3.7 04:44:55 22° SSW 04:44:55 22° SSW 04:47:06 10° S
ATLAS 3B R/B 3.5 04:43:12 33° NW 04:44:14 34° NNW 04:50:54 10° NE
CZ-2C R/B 3.8 04:41:46 10° NNE 04:45:35 46° E 04:49:24 10° S
CZ-4C R/B 3.9 04:43:39 10° SSE 04:47:54 63° ENE 04:51:02 17° N
Helios 1B rocket 4.5 04:47:49 10° N 04:48:53 17° N 04:48:53 17° N
ATLAS CENTAUR R/B 4.1 04:44:50 10° SSW 04:52:39 36° SE 04:56:38 10° ENE
PSLV R/B 3.6 04:50:23 10° NNE 04:54:38 72° ESE 04:58:28 12° S
Meteor 2-10 Rocket 3.8 04:54:31 49° WSW 04:55:40 57° WNW 05:01:25 10° N
In-Cosmos 22 Rocket 4.2 04:50:28 10° N 04:56:12 80° ENE 05:01:44 10° SSE
COSMOS 2428 2.6 04:54:27 38° NW 04:56:43 73° WSW 05:02:23 10° SSE
Cosmos 968 Rocket 3.7 04:54:14 14° NNW 04:58:49 69° ENE 05:04:03 10° SSE
Meteor 1-29 3.0 05:02:38 10° NNE 05:05:51 67° ESE 05:06:21 55° SSE
USA 305 2.9 05:05:28 53° S 05:06:02 61° SSE 05:09:47 10° ENE
Cosmos 1110 Rocket 3.9 05:02:49 22° SSW 05:06:20 82° WNW 05:11:41 10° NNE
SKYMED 3 4.5 05:02:41 10° SSE 05:06:47 78° ENE 05:10:54 10° N
BREEZE-M DEB (TANK) 4.3 05:04:45 31° SW 05:07:46 75° SSE 05:29:45 10° ENE
Cosmos 1892 Rocket 3.8 05:05:13 10° N 05:09:34 68° E 05:13:52 10° SSE
SL-16 R/B 4.0 05:05:02 10° NNW 05:09:53 27° NE 05:14:41 10° ESE
Cosmos 2082 Rocket 4.4 05:10:47 10° NNW 05:11:02 10° NNW 05:12:08 10° NNW
ARIANE 5 R/B 3.4 05:07:14 10° N 05:10:43 30° NW 05:10:43 30° NW
Aureole 1 4.4 05:13:43 59° S 05:13:43 59° S 05:16:16 10° SSE
FALCON 9 DEB 3.8 05:13:28 36° SSE 05:13:35 36° SE 05:16:17 10° ENE
Cosmos 1825 1.9 05:15:24 51° NW 05:16:11 70° W 05:19:50 10° S
Cosmos 1553 Rocket 4.4 05:12:04 10° N 05:18:24 68° ENE 05:24:45 10° SSE
SKYMED 2 3.6 05:14:17 10° S 05:18:33 57° W 05:21:54 16° NNW
H-2A R/B 2.7 05:16:11 10° NNE 05:21:36 60° E 05:26:54 10° S
Cosmos 2322 4.2 05:20:47 33° W 05:21:58 37° WSW 05:27:07 10° S
Okean 1 Rocket 3.2 05:21:22 23° SW 05:23:53 49° WNW 05:28:16 10° N
SJ-12 3.9 05:24:21 10° N 05:28:25 59° WNW 05:32:26 10° SSW
USA 307 2.9 05:28:10 26° SW 05:30:10 65° SSE 05:34:04 10° ENE
Cosmos 1455 2.0 05:26:40 10° SSW 05:30:21 65° WNW 05:34:07 10° N
Cosmos 2297 Rocket 3.0 05:25:12 10° S 05:30:38 52° ESE 05:36:08 10° NE
Spot 4 Rocket 4.3 05:29:42 10° N 05:34:33 43° WNW 05:39:22 10° SW
USA 267 3.3 05:29:49 10° NE 05:36:25 88° SSE 05:42:47 11° WSW
GENESIS II 4.4 05:35:24 31° WNW 05:37:02 55° WSW 05:40:57 10° SSE
Cosmos 2227 Rocket 3.7 05:33:22 10° S 05:38:34 39° ESE 05:43:47 10° NE
USA 276 2.3 05:38:44 40° SW 05:39:00 41° SSW 05:41:39 10° SE
TSX-5 4.1 05:36:29 16° NNW 05:39:12 61° ENE 05:43:18 10° SE
Timation 1 Rocket 4.5 05:34:44 14° SW 05:39:46 54° NW 05:45:40 10° NNE
Cosmos 2026 Rocket 3.9 05:35:48 10° SSW 05:41:45 59° WNW 05:47:45 10° N
SJ 16-02 2.7 05:38:13 10° N 05:42:20 38° ENE 05:46:24 10° SE
CZ-4C R/B 4.2 05:38:20 12° NW 05:42:36 23° N 05:48:15 10° ENE
Cosmos 1626 Rocket 4.4 05:38:39 10° N 05:42:59 53° ENE 05:47:18 10° SSE
CZ-2D R/B 4.0 05:45:17 10° NNE 05:48:58 53° E 05:52:39 10° S
CENTAUR R/B 3.4 05:41:47 10° NW 05:49:52 77° NE 05:58:57 10° SE
Cosmos 1238 Rocket 2.2 05:47:29 10° S 05:50:38 81° W 05:54:17 10° N
BREEZE-M DEB (TANK) 1.4 05:49:43 25° WSW 05:51:18 84° SSE 05:53:29 10° E
Cosmos 1092 Rocket 4.2 05:46:53 10° SSW 05:52:55 46° WNW 05:58:59 10° N
Cosmos 1633 3.2 05:51:59 23° NW 05:53:08 29° W 05:56:06 10° SSW
Cosmos 1939 Rocket 3.1 05:50:53 10° N 05:54:32 40° WNW 05:58:08 10° SW
S3M 4.2 05:48:16 10° N 05:54:34 75° E 06:00:44 10° SSE
CZ-4B R/B 3.5 05:49:53 10° NNE 05:55:10 79° WNW 06:00:26 10° SSW
USA 229 DEB 4.1 05:53:28 17° W 05:58:12 43° NNW 06:04:51 10° NE
USA 229 4.1 05:53:31 17° W 05:58:18 44° NNW 06:04:57 10° NE
USA 306 2.6 05:55:59 18° WSW 05:58:51 75° NNW 06:02:48 10° ENE
Okean 1-7 Rocket 3.9 05:55:24 10° N 05:59:58 75° ENE 06:04:32 10° SSE
Meteor 1-31 Rocket 2.7 05:58:13 10° N 06:02:06 73° WNW 06:05:58 10° SSW
COSMO-SKYMED 1 3.9 06:03:39 10° SW 06:06:51 20° W 06:10:04 10° NW
Cosmos 2219 4.3 06:02:11 10° S 06:07:37 49° ESE 06:13:04 10° NE
NOAA 12 4.1 06:02:45 10° N 06:07:59 62° WNW 06:13:12 10° SSW
USA 308 2.6 06:06:13 13° WSW 06:09:45 76° NNW 06:13:42 10° ENE
Cosmos 2219 Rocket 3.8 06:10:25 13° W 06:10:33 13° W 06:12:51 10° WSW
USA 234 3.5 06:05:46 10° SE 06:12:11 55° SW 06:18:38 10° WNW
Cosmos 1302 Rocket 4.2 06:10:31 10° SW 06:15:33 50° WNW 06:20:40 10° NNE
Cosmos 1992 Rocket 4.1 06:11:32 10° SSW 06:16:45 86° ESE 06:22:00 10° NNE
Cosmos 2315 Rocket 4.4 06:10:45 10° N 06:17:08 70° E 06:23:27 10° SSE
Cosmos 1544 Rocket 3.5 06:13:34 10° SSW 06:17:55 73° W 06:22:17 10° N
CZ-2C R/B 4.2 06:16:36 10° NNW 06:19:25 19° WNW 06:22:15 10° WSW
Cosmos 2237 Rocket 2.6 06:15:12 10° NW 06:20:32 43° WSW 06:25:50 10° S
ARGOS 3.2 06:16:59 10° NNE 06:22:26 87° WNW 06:27:52 10° SSW
Cosmos 1356 Rocket 3.3 06:21:34 10° NNW 06:25:37 84° W 06:29:43 10° S
SL-08 RB Rocket 3.8 06:21:15 10° NNE 06:25:55 85° ESE 06:30:29 10° SSW
Cosmos 1455 Rocket 3.9 06:26:24 10° SW 06:30:14 28° WNW 06:34:05 10° N
Cosmos 1980 4.4 06:25:36 10° NW 06:30:38 34° WSW 06:35:39 10° SSW
CORIOLIS 4.2 06:27:36 10° NNE 06:33:00 88° ESE 06:38:21 10° SSW
SMAP 3.0 06:30:54 10° N 06:35:34 72° WNW 06:40:12 10° SSW
ATLAS 3B R/B 4.2 06:31:22 10° NW 06:37:13 25° N 06:43:18 10° NE
NOSS 3-2 (C) 4.3 06:30:23 10° NW 06:37:45 79° NE 06:46:22 10° SE
Cosmos 389 Rocket 4.0 06:35:13 10° N 06:38:19 36° ENE 06:41:22 10° SE
COSMOS 2428 4.4 06:37:50 10° WNW 06:39:56 12° W 06:42:02 10° WSW
Landsat 4 3.6 06:36:58 10° N 06:40:38 69° WNW 06:44:18 10° SSW
USA 305 3.1 06:40:57 10° W 06:44:37 45° NNW 06:48:16 10° ENE
Cosmos 1400 Rocket 2.8 06:40:42 10° NNW 06:44:47 80° W 06:48:52 10° S
USA 238 DEB 4.1 06:42:03 10° NW 06:49:21 78° NE 06:57:07 10° SE
USA 238 4.1 06:42:09 10° NW 06:49:25 77° NE 06:57:08 10° SE
